Flag for New Zealand Weather past 2 weeks in Auckland, New Zealand

Now
52 °F

Cool.


Feels Like: 47 °F
Forecast: 51 / 56 °F
Wind: 14 mph from Southwest

Location: Auckland Airport

Current Time: Jul 25, 2014 at 6:47:17 AM

Latest Report: Jul 25, 2014 at 6:00 AM


Visibility: N/A

Pressure: 29.98 "Hg

Humidity: 82%

Dew point: 46 °F

Location of AucklandLocation

Historic Weather in Auckland — Graph

°F

Auckland temperature yesterday

Maximum temperature yesterday: 55 °F (at 10:30 AM)
Minimum temperature yesterday: 39 °F (at 6:00 AM)
Average temperature yesterday: 49 °F

Past Weeks' High & Low Weather Summary

 TemperatureHumidityPressure
High63 °F (Jul 11, 1:30 PM)100% (Jul 12, 4:30 AM)30.15 "Hg (Jul 12, 4:30 AM)
Low36 °F (Jul 18, 8:00 AM)54% (Jul 16, 2:30 PM)29.27 "Hg (Jul 20, 3:30 AM)
Average50 °F85%29.80 "Hg
* Reported Jul 10 5:00 AM — Jul 25 5:30 AM, Auckland, Weather by CustomWeather, © 2014

Note: Actual official high and low records may vary slightly from our data, if they occured in-between our weather recording intervals... More about our weather records

Advertising

Auckland weather history for previous 24 hours

 ConditionsComfort  
Time TempWeatherWind HumidityBarometerVisibility
5:30 AM
Jul 25
52 °FPassing clouds.17 mph82%29.98 "HgN/A
5:00 AM52 °FPassing clouds.12 mph82%29.95 "HgN/A
4:30 AM52 °FPassing clouds.13 mph88%29.98 "HgN/A
4:00 AM52 °FSprinkles. Partly cloudy.13 mph88%29.98 "HgN/A
3:30 AM50 °FLight rain. Passing clouds.12 mph94%29.98 "HgN/A
3:00 AM50 °FSprinkles. Partly cloudy.13 mph94%29.98 "HgN/A
2:30 AM50 °FPassing clouds.8 mph88%29.98 "HgN/A
2:00 AM50 °FLight rain. Partly cloudy.12 mph94%29.98 "HgN/A
1:30 AM52 °FSprinkles. Partly cloudy.16 mph88%29.98 "HgN/A
1:00 AM52 °FSprinkles. Passing clouds.13 mph88%29.98 "Hg4 mi
12:30 AM50 °FPassing clouds.6 mph94%29.98 "HgN/A
12:00 AM50 °FPartly cloudy.9 mph94%29.98 "HgN/A
11:30 PM
Jul 24
52 °FSprinkles. Partly cloudy.10 mph88%29.98 "HgN/A
11:00 PM50 °FPassing clouds.7 mph94%29.98 "HgN/A
10:30 PM52 °FRain showers. Partly cloudy.12 mph94%29.98 "Hg4 mi
10:00 PM50 °FCool.10 mph88%29.98 "HgN/A
9:30 PM50 °FSprinkles. Passing clouds.12 mph88%29.98 "HgN/A
9:00 PM50 °FCool.7 mph88%29.98 "HgN/A
8:30 PM52 °FSprinkles. Passing clouds.8 mph88%29.95 "HgN/A
8:00 PM50 °FPassing clouds.8 mph88%29.95 "HgN/A
7:30 PM50 °FPassing clouds.6 mph88%29.95 "HgN/A
7:00 PM50 °FCool.6 mph88%29.95 "HgN/A
6:30 PM50 °FLight rain. Passing clouds.12 mph94%29.95 "HgN/A
6:00 PM50 °FPassing clouds.6 mph88%29.92 "HgN/A
5:30 PM52 °FPassing clouds.6 mph88%29.92 "HgN/A
5:00 PM54 °FPassing clouds.8 mph82%29.92 "HgN/A
4:30 PM55 °FCool.9 mph72%29.89 "HgN/A
4:00 PM55 °FCool.10 mph72%29.89 "HgN/A
3:30 PM55 °FCool.12 mph77%29.89 "HgN/A
3:00 PM55 °FCool.13 mph77%29.89 "HgN/A
2:30 PM55 °FCool.8 mph82%29.89 "HgN/A
2:00 PM55 °FScattered clouds.6 mph77%29.86 "HgN/A
1:30 PM55 °FCool.7 mph82%29.86 "HgN/A
12:30 PM54 °FBroken clouds.7 mph88%29.89 "HgN/A
12:00 PM52 °FLight rain. Broken clouds.6 mph94%29.89 "HgN/A
11:30 AM52 °FRain. Broken clouds.6 mph88%29.89 "Hg6 mi
11:00 AM55 °FCool.2 mph77%29.89 "HgN/A
10:30 AM55 °FScattered clouds.2 mph77%29.89 "HgN/A
10:00 AM52 °FCool.3 mph88%29.89 "HgN/A
9:30 AM50 °FCool.3 mph94%29.89 "HgN/A
8:30 AM45 °FQuite cool.3 mph93%29.86 "Hg5 mi
8:00 AM43 °FQuite cool.2 mph93%29.86 "HgN/A
7:30 AM43 °FPartly sunny.2 mph100%29.86 "Hg5 mi
7:00 AM41 °FScattered clouds.5 mph93%29.83 "HgN/A
6:30 AM41 °FPartly sunny.3 mph93%29.83 "HgN/A
6:00 AM39 °FLight fog.2 mph100%29.83 "Hg2 mi
Weather by CustomWeather, © 2014

See weather overviewHow to use our weather pages